Regional Weather Roundup
Issued by NWS Albany, NY

Home | Current Version | Previous Version | Graphics & Text | Print | Product List | Glossary Off
Versions: 1 2 3 4 5 6 7 8 9 10 11 12 13 14 15 16 17 18 19 20 21 22 23 24 25 26 27

000
ASUS41 KALY 010810
RWRALY

NEW YORK STATE HOURLY WEATHER ROUNDUP
NATIONAL WEATHER SERVICE ALBANY NY
400 AM EDT SAT OCT 01 2016

NOTE: "FAIR" INDICATES FEW OR NO CLOUDS BELOW 12,000 FEET WITH NO
SIGNIFICANT WEATHER AND/OR NO OBSTRUCTIONS TO VISIBILITY.

NYZ032-033-038>043-046>054-057>066-NYZ062>081-082-084-010900-
EAST


CITY           SKY/WX    TMP DP  RH WIND       PRES   REMARKS
ALBANY         CLOUDY    50  47  89 N5        30.33F
GLENS FALLS    CLOUDY    49  46  90 N6        30.35F
POUGHKEEPSIE   CLOUDY    51  51 100 N7        30.27F FOG
MONTGOMERY     LGT RAIN  52  51  97 NE12      30.26F FOG
WHITE PLAINS   CLOUDY    54  52  93 N9        30.22F FOG
ISLIP          CLOUDY    59  58  96 N13       30.18F FOG
NEW YORK CITY  CLOUDY    58  55  90 N15       30.20F
CENTRAL PARK   CLOUDY    56  53  90 NE8       30.23F
$$

NYZ005>009-017-018-044>046-055-056-010900-
CENTRAL


CITY           SKY/WX    TMP DP  RH WIND       PRES   REMARKS
FULTON         CLOUDY    53  48  83 VRB6      30.25F
SYRACUSE       CLOUDY    51  49  93 E10       30.25F
ROME           CLOUDY    51  50  96 SE6       30.31S
ELMIRA         CLOUDY    55  50  83 NE8       30.21F
BINGHAMTON     CLOUDY    48  48 100 E8        30.23F FOG
MONTICELLO     CLOUDY    48  46  93 E10G17    30.26F
$$

NYZ026>034-041>043-087-010900-
NORTH


CITY           SKY/WX    TMP DP  RH WIND       PRES   REMARKS
WATERTOWN      CLOUDY    52  48  86 NE6       30.27F
FORT DRUM      NOT AVBL
OGDENSBURG       N/A     54  51  92 CALM      30.29F
MASSENA        CLOUDY    55  48  77 CALM      30.31S
SARANAC LAKE   CLOUDY    48  45  89 CALM      30.30S
PLATTSBURGH    PTCLDY    52  49  89 CALM      30.33F
$$

NYZ001>004-010>016-019>021-085-010900-
WEST


CITY           SKY/WX    TMP DP  RH WIND       PRES   REMARKS
NIAGARA FALLS  MOCLDY    56  50  80 E8        30.17S
BUFFALO        CLOUDY    55  50  83 E7        30.16S
DUNKIRK        LGT RAIN  56  54  93 NE7       30.14S
JAMESTOWN      CLOUDY    55  52  88 S6        30.14F
WELLSVILLE     FOG       51  50  96 SE9       30.19F VSB 3/4
ROCHESTER      CLOUDY    54  51  90 E9        30.21F
PENN YAN       CLOUDY    53  51  93 CALM      30.23F
$$

             KEY
       WCI = WIND CHILL INDEX
       VSB = VISIBILITY
       HX  = HEAT INDEX
$$




USA.gov is the U.S. government's official web portal to all federal, state and local government web resources and services.